Regional Weather Roundup
Issued by NWS Cleveland, OH

Home | Current Version | Previous Version | Graphics & Text | Print | Product List | Glossary On
Versions: 1 2 3 4 5 6 7 8 9 10 11 12 13 14 15 16 17 18 19 20 21 22 23 24 25 26 27 28 29 30 31 32 33 34 35 36 37 38 39 40 41 42 43 44 45 46 47 48 49 50
000
ASUS41 KCLE 192100
RWRCLE
OHIO REGIONAL WEATHER ROUNDUP
NATIONAL WEATHER SERVICE WILMINGTON, OH
500 PM EDT THU APR 19 2018

NOTE: "FAIR" INDICATES FEW OR NO CLOUDS BELOW 12,000 FEET WITH NO
SIGNIFICANT WEATHER AND/OR OBSTRUCTIONS TO VISIBILITY.

OHZ001>008-015>018-024>027-034-035-043-044-192200-
   NORTHWEST OHIO

CITY           SKY/WX    TMP DP  RH WIND       PRES   REMARKS
DEFIANCE       NOT AVBL
FINDLAY        FAIR      55  27  34 W15G25    30.18S
TOLEDO EXPRESS FAIR      55  21  26 NW16G29   30.18R
TOLEDO EXEC    FAIR      55  23  28 NW17G28   30.18S
LIMA           FAIR      52  30  43 NW18      30.21S
$$

OHZ009>014-019>023-028>033-038-089-192200-
   NORTHEAST OHIO

CITY           SKY/WX    TMP DP  RH WIND       PRES   REMARKS
CLE-HOPKINS    FAIR      47  30  51 N13G20    30.19R
CLE-LAKEFRONT  FAIR      43  29  57 W9        30.17R
CUY CO. ARPT   PTSUNNY   43  32  65 NW12G21   30.17R
LORAIN-ELYRIA  FAIR      47  22  37 NW21      30.16S
ASHTABULA      PTSUNNY   36  26  67 N20G30    30.16R
AKRON-CANTON   FAIR      48  27  44 NW18G24   30.13S
WOOSTER        NOT AVBL
MANSFIELD      FAIR      50  30  46 NW16G23   30.15S
YOUNGSTOWN     PTSUNNY   39  25  57 NW23G31   30.12R
$$

OHZ042-051>053-060>062-070>072-077>081-192200-
  SOUTHWEST OHIO

CITY           SKY/WX    TMP DP  RH WIND       PRES   REMARKS
CINC-COVINGTON FAIR      52  28  39 NW10      30.26S
CINC-LUNKEN    FAIR      53  32  44 NW9G20    30.27F
HAMILTON       FAIR      54  30  40 NW14G21   30.27S
DAYTON         NOT AVBL
WRIGHT-PAT AFB FAIR      53  28  39 NW14      30.23S
DAYTON GENERAL FAIR      54  29  38 NW9       30.23S
WILMINGTON     FAIR      50  31  48 NW14      30.23S
$$

OHZ036-037-039>041-045>050-054>059-063>069-073>076-082>088-192200-
  CENTRAL AND SOUTHEAST OHIO

CITY           SKY/WX    TMP DP  RH WIND       PRES   REMARKS
COLUMBUS       FAIR      51  30  44 NW15G23   30.19S
OSU AIRPORT    FAIR      51  31  46 NW16G24   30.20S
BOLTON FIELD   MOSUNNY   50  32  50 NW14      30.21S
RICKENBACK AFB NOT AVBL
NEWARK         PTSUNNY   50  30  46 NW15G23   30.18S
MARION         FAIR      50  27  40 NW17G31   30.19R
LANCASTER      FAIR      50  31  48 NW14G20   30.21S
ZANESVILLE     NOT AVBL
NEW PHILLY     FAIR      47  28  47 NW10G20   30.15S
$$



USA.gov is the U.S. government's official web portal to all federal, state and local government web resources and services.